Location: ??
(34.9170°N, 135.5016°E)
Time: 17:20:20
(UTC+00:00)

ATLAS 3B R/B - Pass Details

Date: 29 October 2020
Orbit: 1014 x 1181 km, 63.8° (Epoch: 23 November)

Event Time Altitude Azimuth Distance (km) Brightness Sun altitude
Exits shadow 19:54:13 26° 286° (WNW) 1,871 3.4 -17.5°
Maximum altitude 19:55:55 29° 312° (NW) 1,754 3.4 -17.1°
Drops below altitude 10° 20:01:36 10° 11° (N) 2,828 5.0 -16.0°
Sets 20:04:39 0° 22° (NNE) 3,802 5.8 -15.4°
